Radiation Dose at Monitoring Post of Fukushima Daini Nuclear Power Station
Date,Time,MP-1(microSv/h),MP-2(microSv/h),MP-3(microSv/h),MP-4(microSv/h),MP-5(microSv/h),MP-6(microSv/h),MP-7(microSv/h),Wind Direction,Wind Velocity(m/s),Rain
2019/11/25,00:00,0.175,0.160,0.267,0.250,0.257,0.136,0.084,southwest,2.2,No
2019/11/25,00:10,0.175,0.160,0.265,0.249,0.257,0.136,0.085,southwest,1.2,No
2019/11/25,00:20,0.175,0.160,0.269,0.251,0.257,0.136,0.085,west-southwest,1.3,No
2019/11/25,00:30,0.176,0.160,0.265,0.249,0.257,0.137,0.084,west-southwest,0.9,No
2019/11/25,00:40,0.175,0.159,0.268,0.251,0.258,0.137,0.085,west-northwest,1.0,No
2019/11/25,00:50,0.176,0.160,0.267,0.250,0.257,0.136,0.086,west-northwest,3.0,No
2019/11/25,01:00,0.175,0.160,0.267,0.250,0.260,0.137,0.085,west,4.3,No
2019/11/25,01:10,0.175,0.161,0.268,0.249,0.257,0.137,0.085,west-northwest,3.2,No
2019/11/25,01:20,0.175,0.160,0.267,0.250,0.258,0.136,0.085,west-northwest,2.9,No
2019/11/25,01:30,0.175,0.160,0.268,0.250,0.257,0.137,0.085,north,2.3,No
2019/11/25,01:40,0.175,0.159,0.267,0.251,0.258,0.137,0.085,north-northwest,3.8,No
2019/11/25,01:50,0.175,0.160,0.267,0.249,0.257,0.137,0.085,north,3.1,No
2019/11/25,02:00,0.176,0.159,0.268,0.251,0.257,0.137,0.084,northwest,3.1,No
2019/11/25,02:10,0.175,0.160,0.267,0.250,0.259,0.138,0.086,west-northwest,2.0,No
2019/11/25,02:20,0.176,0.159,0.269,0.250,0.256,0.137,0.085,west,3.3,No
2019/11/25,02:30,0.176,0.159,0.268,0.250,0.258,0.136,0.084,west,3.3,No
2019/11/25,02:40,0.174,0.159,0.268,0.248,0.255,0.137,0.085,west,4.0,No
2019/11/25,02:50,0.175,0.160,0.267,0.250,0.257,0.137,0.084,west,2.3,No
2019/11/25,03:00,0.175,0.160,0.266,0.249,0.257,0.137,0.085,southwest,1.5,No
2019/11/25,03:10,0.176,0.159,0.267,0.251,0.257,0.137,0.084,west-southwest,1.9,No
2019/11/25,03:20,0.175,0.159,0.268,0.249,0.256,0.136,0.084,west-northwest,1.6,No
2019/11/25,03:30,0.175,0.159,0.267,0.250,0.256,0.137,0.084,northwest,0.9,No
2019/11/25,03:40,0.175,0.158,0.268,0.249,0.257,0.136,0.085,south-southeast,0.9,No
2019/11/25,03:50,0.175,0.160,0.268,0.251,0.255,0.137,0.084,west,1.8,No
2019/11/25,04:00,0.176,0.159,0.268,0.250,0.258,0.137,0.085,northwest,1.2,No
2019/11/25,04:10,0.174,0.160,0.267,0.249,0.256,0.137,0.085,northwest,1.4,No
2019/11/25,04:20,0.176,0.159,0.268,0.251,0.258,0.137,0.085,northeast,1.4,No
2019/11/25,04:30,0.176,0.159,0.268,0.251,0.258,0.139,0.085,northeast,0.8,No
2019/11/25,04:40,0.175,0.160,0.266,0.248,0.256,0.138,0.085,east-northeast,1.1,No
2019/11/25,04:50,0.175,0.159,0.268,0.250,0.258,0.139,0.085,-,CALM,No
2019/11/25,05:00,0.175,0.159,0.267,0.249,0.255,0.137,0.085,north,0.7,No
2019/11/25,05:10,0.175,0.159,0.268,0.251,0.257,0.136,0.084,north-northwest,2.4,No
2019/11/25,05:20,0.175,0.159,0.267,0.250,0.257,0.137,0.085,northwest,4.5,No
2019/11/25,05:30,0.175,0.160,0.267,0.250,0.257,0.137,0.085,west-northwest,4.9,No
2019/11/25,05:40,0.176,0.159,0.267,0.251,0.257,0.137,0.085,west-northwest,3.8,No
2019/11/25,05:50,0.174,0.160,0.266,0.250,0.256,0.137,0.084,west,0.7,No
2019/11/25,06:00,0.175,0.160,0.267,0.250,0.257,0.137,0.084,east-southeast,0.8,No
2019/11/25,06:10,0.174,0.160,0.268,0.252,0.258,0.137,0.084,southeast,1.0,No
2019/11/25,06:20,0.175,0.159,0.267,0.249,0.257,0.136,0.085,southeast,2.4,No
2019/11/25,06:30,0.176,0.159,0.267,0.250,0.258,0.137,0.085,south-southeast,3.0,No
2019/11/25,06:40,0.175,0.159,0.268,0.252,0.257,0.137,0.084,south-southeast,2.0,No
2019/11/25,06:50,0.174,0.159,0.267,0.250,0.257,0.136,0.084,south,1.8,No
2019/11/25,07:00,0.176,0.160,0.267,0.250,0.257,0.136,0.085,south,2.0,No
2019/11/25,07:10,0.174,0.159,0.267,0.251,0.256,0.137,0.086,south-southeast,0.7,No
2019/11/25,07:20,0.175,0.160,0.267,0.249,0.258,0.137,0.085,south-southwest,1.4,No
2019/11/25,07:30,0.175,0.159,0.268,0.250,0.255,0.137,0.085,northwest,0.7,No
2019/11/25,07:40,0.174,0.159,0.267,0.248,0.258,0.137,0.085,north-northwest,2.0,No
2019/11/25,07:50,0.176,0.160,0.267,0.251,0.257,0.137,0.084,northwest,2.1,No
2019/11/25,08:00,0.174,0.159,0.268,0.247,0.256,0.137,0.084,northwest,2.3,No
2019/11/25,08:10,0.175,0.159,0.266,0.250,0.255,0.135,0.084,west-northwest,2.0,No
2019/11/25,08:20,0.174,0.158,0.268,0.247,0.256,0.137,0.085,west-northwest,2.4,No
2019/11/25,08:30,0.175,0.159,0.265,0.248,0.256,0.136,0.083,west-southwest,2.5,No
2019/11/25,08:40,0.175,0.159,0.267,0.248,0.256,0.136,0.084,west-northwest,2.0,No
2019/11/25,08:50,0.174,0.160,0.267,0.248,0.257,0.136,0.084,west-northwest,2.9,No
2019/11/25,09:00,0.175,0.159,0.267,0.250,0.257,0.136,0.085,west-northwest,4.0,No
2019/11/25,09:10,0.174,0.159,0.266,0.249,0.256,0.136,0.085,west-northwest,3.8,No
2019/11/25,09:20,0.175,0.159,0.267,0.248,0.258,0.137,0.084,northwest,2.0,No
2019/11/25,09:30,0.175,0.158,0.267,0.249,0.257,0.136,0.084,northwest,6.9,No
2019/11/25,09:40,0.175,0.159,0.266,0.248,0.256,0.137,0.084,west,3.7,No
2019/11/25,09:50,0.176,0.159,0.267,0.248,0.257,0.138,0.084,west,3.5,No
2019/11/25,10:00,0.173,0.158,0.266,0.250,0.255,0.136,0.084,west,3.3,No
2019/11/25,10:10,0.175,0.160,0.268,0.250,0.253,0.137,0.084,west,2.1,No
2019/11/25,10:20,0.176,0.158,0.266,0.248,0.257,0.136,0.085,west,1.6,No
2019/11/25,10:30,0.173,0.158,0.266,0.247,0.257,0.137,0.084,west-northwest,1.2,No
2019/11/25,10:40,0.173,0.157,0.267,0.251,0.256,0.137,0.084,northwest,1.7,No
2019/11/25,10:50,0.173,0.160,0.265,0.250,0.255,0.137,0.084,northwest,3.6,No
2019/11/25,11:00,0.176,0.159,0.267,0.249,0.255,0.137,0.084,north-northwest,3.7,No
2019/11/25,11:10,0.176,0.159,0.266,0.247,0.254,0.137,0.085,west-northwest,4.9,No
2019/11/25,11:20,0.175,0.158,0.270,0.249,0.254,0.138,0.084,northwest,5.9,No
2019/11/25,11:30,0.174,0.158,0.266,0.251,0.254,0.137,0.084,west-northwest,8.4,No
2019/11/25,11:40,0.173,0.160,0.266,0.250,0.255,0.136,0.084,north,6.3,No
2019/11/25,11:50,0.177,0.161,0.268,0.249,0.259,0.137,0.084,northwest,7.8,No
2019/11/25,12:00,0.177,0.159,0.267,0.251,0.259,0.138,0.086,northwest,8.4,No
2019/11/25,12:10,0.176,0.162,0.266,0.253,0.257,0.136,0.085,northwest,8.4,No
2019/11/25,12:20,0.177,0.161,0.269,0.250,0.259,0.137,0.085,northwest,8.2,No
2019/11/25,12:30,0.176,0.161,0.267,0.253,0.258,0.137,0.086,north-northwest,7.7,No
2019/11/25,12:40,0.175,0.161,0.268,0.252,0.258,0.137,0.085,north,4.6,No
2019/11/25,12:50,0.177,0.160,0.267,0.252,0.260,0.138,0.085,north-northeast,7.2,No
2019/11/25,13:00,0.176,0.161,0.268,0.254,0.259,0.137,0.086,northeast,7.9,No
2019/11/25,13:10,0.178,0.159,0.268,0.250,0.258,0.137,0.085,north-northeast,7.4,No
2019/11/25,13:20,0.176,0.161,0.269,0.253,0.259,0.138,0.085,northeast,7.3,No
2019/11/25,13:30,0.178,0.161,0.266,0.251,0.259,0.138,0.085,north,6.5,No
2019/11/25,13:40,0.176,0.162,0.271,0.253,0.261,0.139,0.086,north,7.9,No
2019/11/25,13:50,0.178,0.161,0.269,0.251,0.257,0.137,0.086,north-northeast,6.1,No
2019/11/25,14:00,0.176,0.161,0.269,0.254,0.260,0.138,0.085,north,9.0,No
2019/11/25,14:10,0.178,0.161,0.270,0.252,0.257,0.138,0.086,north,7.7,No
2019/11/25,14:20,0.178,0.161,0.269,0.253,0.262,0.139,0.086,north,7.9,No
2019/11/25,14:30,0.178,0.161,0.269,0.252,0.258,0.138,0.085,north,10.1,No
2019/11/25,14:40,0.177,0.161,0.271,0.253,0.262,0.139,0.086,north,10.9,No
2019/11/25,14:50,0.177,0.161,0.269,0.252,0.258,0.139,0.085,north-northwest,8.7,No
2019/11/25,15:00,0.178,0.161,0.272,0.253,0.259,0.139,0.086,north,6.7,Yes
2019/11/25,15:10,0.178,0.162,0.269,0.253,0.260,0.139,0.087,north,8.9,Yes
2019/11/25,15:20,0.178,0.161,0.272,0.254,0.262,0.140,0.086,north,10.6,Yes
2019/11/25,15:30,0.179,0.162,0.272,0.253,0.261,0.139,0.087,north,9.5,Yes
2019/11/25,15:40,0.179,0.163,0.272,0.255,0.262,0.140,0.088,north,9.0,Yes
2019/11/25,15:50,0.179,0.163,0.272,0.255,0.262,0.140,0.088,north,9.2,No
2019/11/25,16:00,0.178,0.162,0.271,0.255,0.261,0.140,0.087,north,9.5,Yes
2019/11/25,16:10,0.179,0.163,0.272,0.256,0.263,0.140,0.087,north,8.1,No
2019/11/25,16:20,0.178,0.163,0.272,0.254,0.261,0.139,0.087,north-northwest,8.1,No
2019/11/25,16:30,0.179,0.162,0.270,0.254,0.261,0.141,0.086,north-northwest,8.2,No
2019/11/25,16:40,0.178,0.162,0.271,0.254,0.262,0.140,0.086,north,9.0,No
2019/11/25,16:50,0.178,0.162,0.271,0.254,0.259,0.139,0.087,north-northwest,7.8,No
2019/11/25,17:00,0.178,0.163,0.271,0.254,0.261,0.139,0.087,north,6.8,Yes
2019/11/25,17:10,0.179,0.161,0.272,0.252,0.259,0.139,0.086,north,8.7,No
2019/11/25,17:20,0.177,0.162,0.271,0.254,0.261,0.139,0.085,north,7.0,No
2019/11/25,17:30,0.179,0.162,0.271,0.254,0.260,0.139,0.086,north,7.4,No
2019/11/25,17:40,0.178,0.162,0.272,0.253,0.259,0.140,0.086,north,8.3,No
2019/11/25,17:50,0.178,0.161,0.270,0.253,0.261,0.140,0.085,north,7.9,No
2019/11/25,18:00,0.178,0.161,0.271,0.253,0.260,0.139,0.086,north,7.4,No
2019/11/25,18:10,0.178,0.163,0.270,0.254,0.260,0.139,0.086,north,8.7,No
2019/11/25,18:20,0.178,0.162,0.270,0.254,0.260,0.139,0.086,north,8.6,Yes
2019/11/25,18:30,0.178,0.161,0.272,0.253,0.259,0.140,0.086,north-northwest,7.8,Yes
2019/11/25,18:40,0.179,0.161,0.271,0.254,0.262,0.139,0.087,north,8.7,No
2019/11/25,18:50,0.178,0.162,0.272,0.253,0.260,0.139,0.085,north,7.9,No
2019/11/25,19:00,0.179,0.161,0.271,0.252,0.261,0.141,0.086,north-northwest,7.4,No
2019/11/25,19:10,0.179,0.162,0.271,0.255,0.262,0.139,0.086,north,6.8,No
2019/11/25,19:20,0.178,0.161,0.272,0.253,0.260,0.141,0.086,north-northwest,6.6,No
2019/11/25,19:30,0.178,0.163,0.273,0.253,0.262,0.140,0.086,north,7.6,No
2019/11/25,19:40,0.179,0.162,0.271,0.255,0.261,0.140,0.086,north-northwest,6.5,No
2019/11/25,19:50,0.178,0.162,0.273,0.254,0.260,0.139,0.086,north,7.2,No
2019/11/25,20:00,0.178,0.163,0.271,0.254,0.261,0.140,0.086,north-northwest,7.7,No
2019/11/25,20:10,0.179,0.163,0.272,0.255,0.259,0.140,0.086,north,7.0,No
2019/11/25,20:20,0.179,0.162,0.273,0.254,0.261,0.139,0.087,north,7.0,No
2019/11/25,20:30,0.178,0.163,0.271,0.255,0.261,0.139,0.086,north,7.0,No
2019/11/25,20:40,0.181,0.163,0.272,0.255,0.259,0.140,0.086,north,6.6,No
2019/11/25,20:50,0.179,0.162,0.273,0.254,0.261,0.140,0.086,north,6.8,No
2019/11/25,21:00,0.179,0.163,0.271,0.254,0.260,0.139,0.086,north-northwest,7.5,No
2019/11/25,21:10,0.179,0.163,0.272,0.255,0.260,0.139,0.086,north,8.5,No
2019/11/25,21:20,0.178,0.162,0.272,0.254,0.261,0.140,0.086,north,8.8,No
2019/11/25,21:30,0.178,0.163,0.271,0.254,0.259,0.139,0.086,north-northwest,8.1,No
2019/11/25,21:40,0.180,0.163,0.271,0.253,0.260,0.141,0.086,north,7.3,Yes
2019/11/25,21:50,0.178,0.162,0.272,0.254,0.260,0.140,0.086,north,7.3,Yes
2019/11/25,22:00,0.179,0.163,0.272,0.254,0.261,0.140,0.086,north,9.2,Yes
2019/11/25,22:10,0.180,0.162,0.271,0.254,0.260,0.140,0.086,north,7.1,Yes
2019/11/25,22:20,0.181,0.165,0.275,0.256,0.264,0.142,0.089,north,7.6,Yes
2019/11/25,22:30,0.184,0.169,0.278,0.260,0.265,0.149,0.093,north,8.6,Yes
2019/11/25,22:40,0.187,0.173,0.280,0.262,0.268,0.152,0.096,north,8.7,Yes
2019/11/25,22:50,0.187,0.173,0.280,0.261,0.269,0.151,0.096,north,8.4,Yes
2019/11/25,23:00,0.188,0.174,0.280,0.263,0.269,0.152,0.097,north,8.4,Yes
2019/11/25,23:10,0.189,0.175,0.280,0.264,0.269,0.152,0.097,north,8.8,Yes
2019/11/25,23:20,0.187,0.174,0.280,0.261,0.269,0.151,0.096,north-northwest,7.6,No
2019/11/25,23:30,0.186,0.171,0.278,0.260,0.267,0.149,0.095,north-northwest,7.5,No
2019/11/25,23:40,0.185,0.171,0.278,0.261,0.265,0.147,0.092,north-northwest,6.9,No
2019/11/25,23:50,0.184,0.169,0.276,0.259,0.265,0.145,0.092,north-northwest,7.3,No
